Time,TemperatureF,DewpointF,PressureIn,WindDirection,WindDirectionDegrees,WindSpeedMPH,WindSpeedGustMPH,Humidity,HourlyPrecipIn,Conditions,Clouds,dailyrainin,SoftwareType,DateUTC
2013-04-15 00:00:00,39.6,35.2,29.88,East,90,5.0,9.0,84,0.00,,,0.11,WUHU216DAVISVP2,2013-04-15 04:00:00,
2013-04-15 00:05:00,39.6,35.2,29.88,ENE,65,4.0,6.0,84,0.00,,,0.00,WUHU216DAVISVP2,2013-04-15 04:05:00,
2013-04-15 00:10:00,39.4,35.2,29.87,East,79,1.0,6.0,85,0.00,,,0.00,WUHU216DAVISVP2,2013-04-15 04:10:00,
2013-04-15 00:16:00,39.3,35.1,29.87,East,87,1.0,7.0,85,0.00,,,0.00,WUHU216DAVISVP2,2013-04-15 04:16:00,
2013-04-15 00:21:00,39.2,35.3,29.87,East,91,2.0,7.0,86,0.00,,,0.00,WUHU216DAVISVP2,2013-04-15 04:21:00,
2013-04-15 00:26:00,39.1,35.2,29.87,East,99,0.0,5.0,86,0.00,,,0.00,WUHU216DAVISVP2,2013-04-15 04:26:00,
2013-04-15 00:31:00,39.0,35.1,29.87,ENE,74,2.0,5.0,86,0.00,,,0.00,WUHU216DAVISVP2,2013-04-15 04:31:00,
2013-04-15 00:36:00,39.0,35.1,29.87,ENE,74,2.0,5.0,86,0.00,,,0.00,WUHU216DAVISVP2,2013-04-15 04:36:00,
2013-04-15 00:42:00,38.8,35.2,29.86,East,100,4.0,5.0,87,0.00,,,0.00,WUHU216DAVISVP2,2013-04-15 04:42:00,
2013-04-15 00:47:00,38.8,35.2,29.86,East,86,0.0,5.0,87,0.00,,,0.00,WUHU216DAVISVP2,2013-04-15 04:47:00,
2013-04-15 00:52:00,38.8,35.2,29.86,ENE,67,0.0,4.0,87,0.00,,,0.00,WUHU216DAVISVP2,2013-04-15 04:52:00,
2013-04-15 00:57:00,38.7,35.4,29.86,ENE,71,0.0,4.0,88,0.00,,,0.00,WUHU216DAVISVP2,2013-04-15 04:57:00,
2013-04-15 01:02:00,38.7,35.4,29.86,ESE,115,0.0,4.0,88,0.00,,,0.00,WUHU216DAVISVP2,2013-04-15 05:02:00,
2013-04-15 01:07:00,38.7,35.4,29.86,ESE,114,4.0,4.0,88,0.00,,,0.00,WUHU216DAVISVP2,2013-04-15 05:07:00,
2013-04-15 01:12:00,38.6,35.3,29.86,ESE,114,2.0,4.0,88,0.00,,,0.00,WUHU216DAVISVP2,2013-04-15 05:12:00,
2013-04-15 01:17:00,38.7,35.4,29.86,SE,126,1.0,5.0,88,0.00,,,0.00,WUHU216DAVISVP2,2013-04-15 05:17:00,
2013-04-15 01:22:00,38.6,35.6,29.85,East,86,0.0,5.0,89,0.00,,,0.00,WUHU216DAVISVP2,2013-04-15 05:22:00,
2013-04-15 01:27:00,38.7,35.7,29.85,East,88,1.0,4.0,89,0.00,,,0.00,WUHU216DAVISVP2,2013-04-15 05:27:00,
2013-04-15 01:32:00,38.6,35.6,29.85,ENE,68,2.0,5.0,89,0.00,,,0.00,WUHU216DAVISVP2,2013-04-15 05:32:00,
2013-04-15 01:37:00,38.7,35.7,29.85,ENE,76,0.0,5.0,89,0.00,,,0.00,WUHU216DAVISVP2,2013-04-15 05:37:00,
2013-04-15 01:42:00,38.8,35.8,29.85,East,96,0.0,4.0,89,0.00,,,0.00,WUHU216DAVISVP2,2013-04-15 05:42:00,
2013-04-15 01:48:00,38.8,35.8,29.85,East,96,1.0,4.0,89,0.00,,,0.00,WUHU216DAVISVP2,2013-04-15 05:48:00,
2013-04-15 01:53:00,38.8,35.8,29.85,East,92,1.0,5.0,89,0.00,,,0.00,WUHU216DAVISVP2,2013-04-15 05:53:00,
2013-04-15 01:58:00,38.9,35.9,29.85,SE,132,0.0,5.0,89,0.00,,,0.00,WUHU216DAVISVP2,2013-04-15 05:58:00,
2013-04-15 02:03:00,38.9,35.9,29.85,ESE,120,5.0,5.0,89,0.00,,,0.00,WUHU216DAVISVP2,2013-04-15 06:03:00,
2013-04-15 02:08:00,38.9,35.9,29.85,East,95,0.0,5.0,89,0.00,,,0.00,WUHU216DAVISVP2,2013-04-15 06:08:00,
2013-04-15 02:13:00,38.9,35.9,29.85,East,95,2.0,5.0,89,0.00,,,0.00,WUHU216DAVISVP2,2013-04-15 06:13:00,
2013-04-15 02:19:00,38.8,35.8,29.85,ENE,76,1.0,5.0,89,0.00,,,0.00,WUHU216DAVISVP2,2013-04-15 06:19:00,
2013-04-15 02:20:00,38.7,35.7,29.85,ESE,110,2.0,5.0,89,0.00,,,0.00,WUHU216DAVISVP2,2013-04-15 06:20:00,
2013-04-15 02:24:00,38.8,35.8,29.85,East,86,2.0,6.0,89,0.00,,,0.00,WUHU216DAVISVP2,2013-04-15 06:24:00,
2013-04-15 02:29:00,38.7,35.7,29.85,ESE,110,2.0,5.0,89,0.00,,,0.00,WUHU216DAVISVP2,2013-04-15 06:29:00,
2013-04-15 02:34:00,38.7,35.7,29.85,ENE,74,0.0,4.0,89,0.00,,,0.00,WUHU216DAVISVP2,2013-04-15 06:34:00,
2013-04-15 02:39:00,38.7,36.0,29.85,East,94,1.0,6.0,90,0.00,,,0.00,WUHU216DAVISVP2,2013-04-15 06:39:00,
2013-04-15 02:44:00,38.7,36.0,29.85,ESE,109,1.0,6.0,90,0.00,,,0.00,WUHU216DAVISVP2,2013-04-15 06:44:00,
2013-04-15 02:49:00,38.6,35.6,29.85,East,101,0.0,4.0,89,0.00,,,0.00,WUHU216DAVISVP2,2013-04-15 06:49:00,
2013-04-15 02:54:00,38.5,35.8,29.85,ENE,60,4.0,5.0,90,0.00,,,0.00,WUHU216DAVISVP2,2013-04-15 06:54:00,
2013-04-15 02:59:00,38.4,35.7,29.85,ENE,65,0.0,5.0,90,0.00,,,0.00,WUHU216DAVISVP2,2013-04-15 06:59:00,
2013-04-15 03:05:00,38.3,35.6,29.85,ENE,74,3.0,5.0,90,0.00,,,0.00,WUHU216DAVISVP2,2013-04-15 07:05:00,
2013-04-15 03:06:00,38.4,35.7,29.85,ENE,72,1.0,4.0,90,0.00,,,0.00,WUHU216DAVISVP2,2013-04-15 07:06:00,
2013-04-15 03:12:00,38.3,35.6,29.85,ENE,72,0.0,4.0,90,0.00,,,0.00,WUHU216DAVISVP2,2013-04-15 07:12:00,
2013-04-15 03:18:00,38.2,35.8,29.85,ENE,72,0.0,3.0,91,0.00,,,0.00,WUHU216DAVISVP2,2013-04-15 07:18:00,
2013-04-15 03:24:00,38.2,35.8,29.85,ENE,72,1.0,4.0,91,0.00,,,0.00,WUHU216DAVISVP2,2013-04-15 07:24:00,
2013-04-15 03:30:00,38.1,35.7,29.85,ENE,72,0.0,4.0,91,0.00,,,0.00,WUHU216DAVISVP2,2013-04-15 07:30:00,
2013-04-15 03:41:00,38.1,35.7,29.85,ENE,72,0.0,2.0,91,0.00,,,0.00,WUHU216DAVISVP2,2013-04-15 07:41:00,
2013-04-15 03:46:00,38.0,35.6,29.86,ENE,72,0.0,1.0,91,0.00,,,0.00,WUHU216DAVISVP2,2013-04-15 07:46:00,
2013-04-15 03:48:00,38.1,35.7,29.86,ENE,72,2.0,2.0,91,0.00,,,0.00,WUHU216DAVISVP2,2013-04-15 07:48:00,
2013-04-15 03:51:00,38.1,35.7,29.86,ENE,72,4.0,4.0,91,0.00,,,0.00,WUHU216DAVISVP2,2013-04-15 07:51:00,
2013-04-15 03:56:00,38.0,35.6,29.86,West,262,1.0,5.0,91,0.00,,,0.00,WUHU216DAVISVP2,2013-04-15 07:56:00,
2013-04-15 04:01:00,38.1,35.7,29.86,West,262,0.0,5.0,91,0.00,,,0.00,WUHU216DAVISVP2,2013-04-15 08:01:00,
2013-04-15 04:03:00,38.3,36.1,29.86,East,85,1.0,5.0,92,0.00,,,0.00,WUHU216DAVISVP2,2013-04-15 08:03:00,
2013-04-15 04:06:00,38.2,35.8,29.86,East,85,0.0,4.0,91,0.00,,,0.00,WUHU216DAVISVP2,2013-04-15 08:06:00,
2013-04-15 04:08:00,38.1,35.7,29.86,East,85,4.0,4.0,91,0.00,,,0.00,WUHU216DAVISVP2,2013-04-15 08:08:00,
2013-04-15 04:12:00,38.2,35.8,29.86,East,85,0.0,4.0,91,0.00,,,0.00,WUHU216DAVISVP2,2013-04-15 08:12:00,
2013-04-15 04:14:00,38.2,36.0,29.86,ENE,78,1.0,5.0,92,0.00,,,0.00,WUHU216DAVISVP2,2013-04-15 08:14:00,
2013-04-15 04:17:00,38.3,36.1,29.86,East,86,0.0,5.0,92,0.00,,,0.00,WUHU216DAVISVP2,2013-04-15 08:17:00,
2013-04-15 04:22:00,38.4,36.0,29.86,East,86,1.0,5.0,91,0.00,,,0.00,WUHU216DAVISVP2,2013-04-15 08:22:00,
2013-04-15 04:27:00,38.4,36.0,29.87,ENE,74,0.0,4.0,91,0.00,,,0.00,WUHU216DAVISVP2,2013-04-15 08:27:00,
2013-04-15 04:32:00,38.5,36.1,29.86,ESE,103,1.0,4.0,91,0.00,,,0.00,WUHU216DAVISVP2,2013-04-15 08:32:00,
2013-04-15 04:37:00,38.5,36.1,29.87,ESE,103,0.0,4.0,91,0.00,,,0.00,WUHU216DAVISVP2,2013-04-15 08:37:00,
2013-04-15 04:40:00,38.5,36.1,29.87,ESE,103,0.0,2.0,91,0.00,,,0.00,WUHU216DAVISVP2,2013-04-15 08:40:00,
2013-04-15 04:41:00,38.4,36.0,29.87,ESE,103,0.0,1.0,91,0.00,,,0.00,WUHU216DAVISVP2,2013-04-15 08:41:00,
2013-04-15 04:47:00,38.3,35.9,29.88,ESE,103,0.0,0.0,91,0.00,,,0.00,WUHU216DAVISVP2,2013-04-15 08:47:00,
2013-04-15 04:52:00,38.3,35.9,29.88,ESE,103,0.0,0.0,91,0.00,,,0.00,WUHU216DAVISVP2,2013-04-15 08:52:00,
2013-04-15 04:54:00,38.3,36.1,29.88,ESE,103,0.0,2.0,92,0.00,,,0.00,WUHU216DAVISVP2,2013-04-15 08:54:00,
2013-04-15 04:57:00,38.3,35.9,29.88,ESE,103,0.0,2.0,91,0.00,,,0.00,WUHU216DAVISVP2,2013-04-15 08:57:00,
2013-04-15 05:02:00,38.2,35.8,29.88,ESE,103,0.0,0.0,91,0.00,,,0.00,WUHU216DAVISVP2,2013-04-15 09:02:00,
2013-04-15 05:07:00,38.1,35.9,29.88,ESE,103,0.0,0.0,92,0.00,,,0.00,WUHU216DAVISVP2,2013-04-15 09:07:00,
2013-04-15 05:12:00,38.0,35.8,29.88,ESE,103,0.0,0.0,92,0.00,,,0.00,WUHU216DAVISVP2,2013-04-15 09:12:00,
2013-04-15 05:17:00,38.1,35.9,29.89,ESE,103,0.0,0.0,92,0.00,,,0.00,WUHU216DAVISVP2,2013-04-15 09:17:00,
2013-04-15 05:22:00,38.0,35.8,29.89,ESE,103,0.0,0.0,92,0.00,,,0.00,WUHU216DAVISVP2,2013-04-15 09:22:00,
2013-04-15 05:24:00,38.0,35.8,29.89,ESE,103,0.0,0.0,92,0.00,,,0.00,WUHU216DAVISVP2,2013-04-15 09:24:00,
2013-04-15 05:27:00,38.0,35.8,29.89,ESE,103,0.0,0.0,92,0.00,,,0.00,WUHU216DAVISVP2,2013-04-15 09:27:00,
2013-04-15 05:32:00,38.0,35.8,29.89,ESE,103,0.0,0.0,92,0.00,,,0.00,WUHU216DAVISVP2,2013-04-15 09:32:00,
2013-04-15 05:37:00,37.7,35.5,29.90,ESE,103,0.0,0.0,92,0.00,,,0.00,WUHU216DAVISVP2,2013-04-15 09:37:00,
2013-04-15 05:42:00,37.5,35.3,29.90,ESE,103,0.0,0.0,92,0.00,,,0.00,WUHU216DAVISVP2,2013-04-15 09:42:00,
2013-04-15 05:48:00,37.5,35.3,29.90,ESE,103,0.0,0.0,92,0.00,,,0.00,WUHU216DAVISVP2,2013-04-15 09:48:00,
2013-04-15 05:53:00,37.4,35.2,29.90,ESE,103,0.0,1.0,92,0.00,,,0.00,WUHU216DAVISVP2,2013-04-15 09:53:00,
2013-04-15 05:55:00,37.3,35.1,29.90,ESE,103,0.0,1.0,92,0.00,,,0.00,WUHU216DAVISVP2,2013-04-15 09:55:00,
2013-04-15 05:58:00,37.3,35.4,29.90,ESE,103,0.0,1.0,93,0.00,,,0.00,WUHU216DAVISVP2,2013-04-15 09:58:00,
2013-04-15 06:03:00,37.3,35.4,29.90,ESE,103,0.0,1.0,93,0.00,,,0.00,WUHU216DAVISVP2,2013-04-15 10:03:00,
2013-04-15 06:08:00,37.4,35.5,29.90,ESE,103,0.0,0.0,93,0.00,,,0.00,WUHU216DAVISVP2,2013-04-15 10:08:00,
2013-04-15 06:13:00,37.4,35.5,29.89,ESE,103,0.0,2.0,93,0.00,,,0.00,WUHU216DAVISVP2,2013-04-15 10:13:00,
2013-04-15 06:18:00,37.4,35.5,29.89,ESE,103,0.0,2.0,93,0.00,,,0.00,WUHU216DAVISVP2,2013-04-15 10:18:00,
2013-04-15 06:23:00,37.0,34.8,29.90,ESE,103,0.0,2.0,92,0.00,,,0.00,WUHU216DAVISVP2,2013-04-15 10:23:00,
2013-04-15 06:28:00,37.0,35.1,29.90,ESE,103,1.0,1.0,93,0.00,,,0.00,WUHU216DAVISVP2,2013-04-15 10:28:00,
2013-04-15 06:30:00,37.1,35.2,29.90,ESE,103,0.0,1.0,93,0.00,,,0.00,WUHU216DAVISVP2,2013-04-15 10:30:00,
2013-04-15 06:33:00,37.1,35.5,29.90,ESE,103,0.0,1.0,94,0.00,,,0.00,WUHU216DAVISVP2,2013-04-15 10:33:00,
2013-04-15 06:38:00,37.1,35.2,29.90,ESE,103,0.0,1.0,93,0.00,,,0.00,WUHU216DAVISVP2,2013-04-15 10:38:00,
2013-04-15 06:43:00,37.9,36.3,29.90,ESE,107,1.0,4.0,94,0.00,,,0.00,WUHU216DAVISVP2,2013-04-15 10:43:00,
2013-04-15 06:48:00,38.2,36.6,29.90,ESE,118,4.0,5.0,94,0.00,,,0.00,WUHU216DAVISVP2,2013-04-15 10:48:00,
2013-04-15 06:53:00,38.4,36.5,29.90,ESE,113,2.0,5.0,93,0.00,,,0.00,WUHU216DAVISVP2,2013-04-15 10:53:00,
2013-04-15 06:58:00,38.4,36.5,29.90,ESE,121,2.0,4.0,93,0.00,,,0.00,WUHU216DAVISVP2,2013-04-15 10:58:00,
2013-04-15 07:04:00,38.6,36.7,29.90,SE,136,1.0,4.0,93,0.00,,,0.00,WUHU216DAVISVP2,2013-04-15 11:04:00,
2013-04-15 07:09:00,38.6,36.7,29.90,SE,128,3.0,5.0,93,0.00,,,0.00,WUHU216DAVISVP2,2013-04-15 11:09:00,
2013-04-15 07:13:00,38.8,36.6,29.90,ESE,103,3.0,5.0,92,0.00,,,0.00,WUHU216DAVISVP2,2013-04-15 11:13:00,
2013-04-15 07:14:00,38.8,36.6,29.90,ESE,103,3.0,5.0,92,0.00,,,0.00,WUHU216DAVISVP2,2013-04-15 11:14:00,
2013-04-15 07:19:00,38.8,36.6,29.90,ESE,103,3.0,5.0,92,0.00,,,0.00,WUHU216DAVISVP2,2013-04-15 11:19:00,
2013-04-15 07:20:00,38.9,36.7,29.90,ESE,113,4.0,5.0,92,0.00,,,0.00,WUHU216DAVISVP2,2013-04-15 11:20:00,
2013-04-15 07:24:00,39.0,36.8,29.90,East,95,2.0,6.0,92,0.00,,,0.00,WUHU216DAVISVP2,2013-04-15 11:24:00,
2013-04-15 07:29:00,39.1,36.9,29.90,East,100,4.0,6.0,92,0.00,,,0.00,WUHU216DAVISVP2,2013-04-15 11:29:00,
2013-04-15 07:34:00,39.3,37.1,29.90,ESE,105,2.0,6.0,92,0.00,,,0.00,WUHU216DAVISVP2,2013-04-15 11:34:00,
2013-04-15 07:39:00,39.5,37.3,29.90,ESE,115,2.0,6.0,92,0.00,,,0.00,WUHU216DAVISVP2,2013-04-15 11:39:00,
2013-04-15 07:44:00,39.6,37.4,29.90,SE,133,0.0,5.0,92,0.00,,,0.00,WUHU216DAVISVP2,2013-04-15 11:44:00,
2013-04-15 07:49:00,39.8,37.6,29.90,ESE,119,2.0,5.0,92,0.00,,,0.00,WUHU216DAVISVP2,2013-04-15 11:49:00,
2013-04-15 07:54:00,40.2,37.7,29.90,ESE,117,2.0,6.0,91,0.00,,,0.00,WUHU216DAVISVP2,2013-04-15 11:54:00,
2013-04-15 08:00:00,40.2,37.7,29.90,ESE,117,2.0,6.0,91,0.00,,,0.00,WUHU216DAVISVP2,2013-04-15 12:00:00,
2013-04-15 08:05:00,41.2,38.7,29.89,SSW,192,1.0,5.0,91,0.00,,,0.00,WUHU216DAVISVP2,2013-04-15 12:05:00,
2013-04-15 08:10:00,41.8,39.0,29.89,ESE,109,1.0,7.0,90,0.00,,,0.00,WUHU216DAVISVP2,2013-04-15 12:10:00,
2013-04-15 08:15:00,42.2,39.2,29.89,SSE,155,1.0,6.0,89,0.00,,,0.00,WUHU216DAVISVP2,2013-04-15 12:15:00,
2013-04-15 08:20:00,42.6,39.5,29.89,ESE,123,6.0,6.0,89,0.00,,,0.00,WUHU216DAVISVP2,2013-04-15 12:20:00,
2013-04-15 08:25:00,42.9,39.8,29.89,SE,130,1.0,6.0,89,0.00,,,0.00,WUHU216DAVISVP2,2013-04-15 12:25:00,
2013-04-15 08:30:00,43.8,40.8,29.89,South,178,1.0,5.0,89,0.00,,,0.00,WUHU216DAVISVP2,2013-04-15 12:30:00,
2013-04-15 08:35:00,44.6,41.2,29.89,SSW,192,4.0,5.0,88,0.00,,,0.00,WUHU216DAVISVP2,2013-04-15 12:35:00,
2013-04-15 08:40:00,45.3,41.3,29.89,SSE,168,2.0,7.0,86,0.00,,,0.00,WUHU216DAVISVP2,2013-04-15 12:40:00,
2013-04-15 08:45:00,45.7,41.4,29.88,SE,142,3.0,5.0,85,0.00,,,0.00,WUHU216DAVISVP2,2013-04-15 12:45:00,
2013-04-15 08:50:00,46.1,41.8,29.88,ESE,103,5.0,5.0,85,0.00,,,0.00,WUHU216DAVISVP2,2013-04-15 12:50:00,
2013-04-15 08:56:00,46.4,41.8,29.88,SSE,152,2.0,5.0,84,0.00,,,0.00,WUHU216DAVISVP2,2013-04-15 12:56:00,
2013-04-15 09:01:00,46.9,42.3,29.88,SSE,154,2.0,5.0,84,0.00,,,0.00,WUHU216DAVISVP2,2013-04-15 13:01:00,
2013-04-15 09:07:00,47.4,42.8,29.88,SSE,150,1.0,7.0,84,0.00,,,0.00,WUHU216DAVISVP2,2013-04-15 13:07:00,
2013-04-15 09:12:00,48.0,43.4,29.89,SE,138,1.0,7.0,84,0.00,,,0.00,WUHU216DAVISVP2,2013-04-15 13:12:00,
2013-04-15 09:17:00,48.7,44.1,29.89,SE,146,0.0,7.0,84,0.00,,,0.00,WUHU216DAVISVP2,2013-04-15 13:17:00,
2013-04-15 09:22:00,49.8,44.9,29.90,SW,223,1.0,3.0,83,0.00,,,0.00,WUHU216DAVISVP2,2013-04-15 13:22:00,
2013-04-15 09:27:00,51.1,45.5,29.91,WSW,238,4.0,7.0,81,0.00,,,0.00,WUHU216DAVISVP2,2013-04-15 13:27:00,
2013-04-15 09:32:00,51.3,45.7,29.91,WSW,244,2.0,7.0,81,0.00,,,0.00,WUHU216DAVISVP2,2013-04-15 13:32:00,
2013-04-15 09:37:00,52.5,46.2,29.91,SSW,202,0.0,7.0,79,0.00,,,0.00,WUHU216DAVISVP2,2013-04-15 13:37:00,
2013-04-15 09:42:00,53.1,46.5,29.90,South,182,1.0,7.0,78,0.00,,,0.00,WUHU216DAVISVP2,2013-04-15 13:42:00,
2013-04-15 09:48:00,53.3,46.7,29.90,WSW,247,2.0,5.0,78,0.00,,,0.00,WUHU216DAVISVP2,2013-04-15 13:48:00,
2013-04-15 09:53:00,53.9,47.3,29.90,SW,227,5.0,5.0,78,0.00,,,0.00,WUHU216DAVISVP2,2013-04-15 13:53:00,
2013-04-15 09:58:00,55.0,48.3,29.91,SSW,205,2.0,8.0,78,0.00,,,0.00,WUHU216DAVISVP2,2013-04-15 13:58:00,
2013-04-15 10:03:00,56.0,48.6,29.90,SSE,156,6.0,8.0,76,0.00,,,0.00,WUHU216DAVISVP2,2013-04-15 14:03:00,
2013-04-15 10:08:00,56.4,49.0,29.91,SW,236,1.0,8.0,76,0.00,,,0.00,WUHU216DAVISVP2,2013-04-15 14:08:00,
2013-04-15 10:13:00,56.7,49.2,29.91,WNW,300,5.0,7.0,76,0.00,,,0.00,WUHU216DAVISVP2,2013-04-15 14:13:00,
2013-04-15 10:18:00,57.2,49.4,29.90,South,173,2.0,8.0,75,0.00,,,0.00,WUHU216DAVISVP2,2013-04-15 14:18:00,
2013-04-15 10:23:00,57.6,50.2,29.90,SSW,205,5.0,8.0,76,0.00,,,0.00,WUHU216DAVISVP2,2013-04-15 14:23:00,
2013-04-15 10:28:00,58.5,50.7,29.90,SSE,157,1.0,7.0,75,0.00,,,0.00,WUHU216DAVISVP2,2013-04-15 14:28:00,
2013-04-15 10:34:00,59.5,50.6,29.90,West,279,9.0,9.0,72,0.00,,,0.00,WUHU216DAVISVP2,2013-04-15 14:34:00,
2013-04-15 10:39:00,60.5,51.2,29.90,ESE,122,7.0,14.0,71,0.00,,,0.00,WUHU216DAVISVP2,2013-04-15 14:39:00,
2013-04-15 10:44:00,61.1,51.0,29.89,West,265,6.0,14.0,69,0.00,,,0.00,WUHU216DAVISVP2,2013-04-15 14:44:00,
2013-04-15 10:49:00,61.0,50.9,29.89,SW,219,0.0,14.0,69,0.00,,,0.00,WUHU216DAVISVP2,2013-04-15 14:49:00,
2013-04-15 10:54:00,60.9,51.0,29.89,SSW,207,4.0,12.0,70,0.00,,,0.00,WUHU216DAVISVP2,2013-04-15 14:54:00,
2013-04-15 10:59:00,60.7,51.4,29.89,SW,215,5.0,9.0,71,0.00,,,0.00,WUHU216DAVISVP2,2013-04-15 14:59:00,
2013-04-15 11:04:00,61.0,51.7,29.89,SSE,168,1.0,10.0,71,0.00,,,0.00,WUHU216DAVISVP2,2013-04-15 15:04:00,
2013-04-15 11:09:00,61.4,51.7,29.89,West,271,5.0,10.0,70,0.00,,,0.00,WUHU216DAVISVP2,2013-04-15 15:09:00,
2013-04-15 11:14:00,61.4,51.5,29.89,SW,221,5.0,12.0,70,0.00,,,0.00,WUHU216DAVISVP2,2013-04-15 15:14:00,
2013-04-15 11:19:00,61.5,51.8,29.89,SSW,194,5.0,12.0,70,0.00,,,0.00,WUHU216DAVISVP2,2013-04-15 15:19:00,
2013-04-15 11:24:00,62.2,51.9,29.89,WSW,257,0.0,11.0,69,0.00,,,0.00,WUHU216DAVISVP2,2013-04-15 15:24:00,
2013-04-15 11:29:00,62.5,52.7,29.89,SW,235,1.0,11.0,70,0.00,,,0.00,WUHU216DAVISVP2,2013-04-15 15:29:00,
2013-04-15 11:35:00,63.2,53.4,29.90,WSW,238,0.0,11.0,70,0.00,,,0.00,WUHU216DAVISVP2,2013-04-15 15:35:00,
2013-04-15 11:40:00,63.9,53.3,29.89,West,262,2.0,8.0,68,0.00,,,0.00,WUHU216DAVISVP2,2013-04-15 15:40:00,
2013-04-15 11:45:00,64.6,53.0,29.89,WSW,257,4.0,8.0,66,0.00,,,0.00,WUHU216DAVISVP2,2013-04-15 15:45:00,
2013-04-15 11:50:00,64.7,52.8,29.89,West,275,7.0,13.0,65,0.00,,,0.00,WUHU216DAVISVP2,2013-04-15 15:50:00,
2013-04-15 11:55:00,64.6,52.1,29.89,West,267,9.0,13.0,64,0.00,,,0.00,WUHU216DAVISVP2,2013-04-15 15:55:00,
2013-04-15 12:00:00,64.8,53.3,29.89,SSW,200,1.0,11.0,66,0.00,,,0.00,WUHU216DAVISVP2,2013-04-15 16:00:00,
2013-04-15 12:05:00,65.1,53.6,29.89,SW,231,4.0,11.0,66,0.00,,,0.00,WUHU216DAVISVP2,2013-04-15 16:05:00,
2013-04-15 12:11:00,65.3,53.2,29.89,SW,218,1.0,10.0,65,0.00,,,0.00,WUHU216DAVISVP2,2013-04-15 16:11:00,
2013-04-15 12:16:00,65.4,53.1,29.88,WSW,244,5.0,11.0,64,0.00,,,0.00,WUHU216DAVISVP2,2013-04-15 16:16:00,
2013-04-15 12:21:00,65.5,53.6,29.89,SSE,166,0.0,11.0,65,0.00,,,0.00,WUHU216DAVISVP2,2013-04-15 16:21:00,
2013-04-15 12:26:00,65.5,53.6,29.88,West,261,9.0,10.0,65,0.00,,,0.00,WUHU216DAVISVP2,2013-04-15 16:26:00,
2013-04-15 12:30:00,65.5,54.0,29.88,SW,236,3.0,10.0,66,0.00,,,0.00,WUHU216DAVISVP2,2013-04-15 16:30:00,
2013-04-15 12:31:00,65.6,53.7,29.89,ESE,122,2.0,10.0,65,0.00,,,0.00,WUHU216DAVISVP2,2013-04-15 16:31:00,
2013-04-15 12:36:00,65.9,53.5,29.88,WSW,243,7.0,10.0,64,0.00,,,0.00,WUHU216DAVISVP2,2013-04-15 16:36:00,
2013-04-15 12:42:00,65.8,53.5,29.88,WSW,240,1.0,11.0,64,0.00,,,0.00,WUHU216DAVISVP2,2013-04-15 16:42:00,
2013-04-15 12:47:00,65.8,53.5,29.88,WSW,240,1.0,11.0,64,0.00,,,0.00,WUHU216DAVISVP2,2013-04-15 16:47:00,
2013-04-15 12:52:00,66.1,54.0,29.88,WSW,250,5.0,10.0,65,0.00,,,0.00,WUHU216DAVISVP2,2013-04-15 16:52:00,
2013-04-15 12:57:00,66.4,53.4,29.87,SSW,192,7.0,10.0,63,0.00,,,0.00,WUHU216DAVISVP2,2013-04-15 16:57:00,
2013-04-15 13:02:00,66.3,53.9,29.88,SE,135,4.0,11.0,64,0.00,,,0.00,WUHU216DAVISVP2,2013-04-15 17:02:00,
2013-04-15 13:07:00,66.4,53.6,29.88,WSW,237,4.0,11.0,63,0.00,,,0.00,WUHU216DAVISVP2,2013-04-15 17:07:00,
2013-04-15 13:12:00,66.8,54.0,29.88,West,280,6.0,10.0,63,0.00,,,0.00,WUHU216DAVISVP2,2013-04-15 17:12:00,
2013-04-15 13:17:00,66.9,54.1,29.88,SSW,205,2.0,10.0,63,0.00,,,0.00,WUHU216DAVISVP2,2013-04-15 17:17:00,
2013-04-15 13:21:00,67.1,54.3,29.87,SSE,151,3.0,10.0,63,0.00,,,0.00,WUHU216DAVISVP2,2013-04-15 17:21:00,
2013-04-15 13:22:00,67.1,53.8,29.88,WSW,253,6.0,9.0,62,0.00,,,0.00,WUHU216DAVISVP2,2013-04-15 17:22:00,
2013-04-15 13:27:00,66.9,53.6,29.88,WSW,246,3.0,9.0,62,0.00,,,0.00,WUHU216DAVISVP2,2013-04-15 17:27:00,
2013-04-15 13:29:00,66.8,53.1,29.88,SW,234,4.0,9.0,61,0.00,,,0.00,WUHU216DAVISVP2,2013-04-15 17:29:00,
2013-04-15 13:34:00,66.6,53.2,29.88,SW,232,1.0,10.0,62,0.00,,,0.00,WUHU216DAVISVP2,2013-04-15 17:34:00,
2013-04-15 13:39:00,66.4,53.4,29.88,SW,223,1.0,10.0,63,0.00,,,0.00,WUHU216DAVISVP2,2013-04-15 17:39:00,
2013-04-15 13:44:00,66.8,54.4,29.87,SSE,162,1.0,8.0,64,0.00,,,0.00,WUHU216DAVISVP2,2013-04-15 17:44:00,
2013-04-15 13:49:00,67.2,53.7,29.87,WSW,241,5.0,8.0,62,0.00,,,0.00,WUHU216DAVISVP2,2013-04-15 17:49:00,
2013-04-15 13:54:00,67.0,53.7,29.86,SW,223,4.0,10.0,62,0.00,,,0.00,WUHU216DAVISVP2,2013-04-15 17:54:00,
2013-04-15 13:59:00,66.8,53.5,29.87,West,263,4.0,12.0,62,0.00,,,0.00,WUHU216DAVISVP2,2013-04-15 17:59:00,
2013-04-15 14:04:00,66.6,53.6,29.87,WSW,238,8.0,12.0,63,0.00,,,0.00,WUHU216DAVISVP2,2013-04-15 18:04:00,
2013-04-15 14:10:00,66.9,53.9,29.87,West,263,4.0,10.0,63,0.00,,,0.00,WUHU216DAVISVP2,2013-04-15 18:10:00,
2013-04-15 14:15:00,67.3,54.0,29.87,SE,132,4.0,10.0,62,0.00,,,0.00,WUHU216DAVISVP2,2013-04-15 18:15:00,
2013-04-15 14:18:00,67.1,53.6,29.87,SW,217,5.0,12.0,62,0.00,,,0.00,WUHU216DAVISVP2,2013-04-15 18:18:00,
2013-04-15 14:20:00,67.1,53.6,29.87,SW,217,5.0,12.0,62,0.00,,,0.00,WUHU216DAVISVP2,2013-04-15 18:20:00,
2013-04-15 14:25:00,67.1,53.6,29.87,SW,217,5.0,12.0,62,0.00,,,0.00,WUHU216DAVISVP2,2013-04-15 18:25:00,
2013-04-15 14:29:00,66.6,53.8,29.86,West,263,4.0,7.0,63,0.00,,,0.00,WUHU216DAVISVP2,2013-04-15 18:29:00,
2013-04-15 14:30:00,66.5,53.7,29.86,SW,236,3.0,7.0,63,0.00,,,0.00,WUHU216DAVISVP2,2013-04-15 18:30:00,
2013-04-15 14:36:00,66.5,53.9,29.86,West,273,2.0,8.0,64,0.00,,,0.00,WUHU216DAVISVP2,2013-04-15 18:36:00,
2013-04-15 14:41:00,66.5,54.1,29.86,SSE,168,4.0,8.0,64,0.00,,,0.00,WUHU216DAVISVP2,2013-04-15 18:41:00,
2013-04-15 14:46:00,66.5,54.1,29.86,WSW,254,5.0,8.0,64,0.00,,,0.00,WUHU216DAVISVP2,2013-04-15 18:46:00,
2013-04-15 14:51:00,66.8,54.0,29.86,SW,230,4.0,9.0,63,0.00,,,0.00,WUHU216DAVISVP2,2013-04-15 18:51:00,
2013-04-15 14:56:00,67.3,54.0,29.86,SSW,211,1.0,12.0,62,0.00,,,0.00,WUHU216DAVISVP2,2013-04-15 18:56:00,
2013-04-15 15:01:00,67.3,54.4,29.86,SSE,157,7.0,12.0,63,0.00,,,0.00,WUHU216DAVISVP2,2013-04-15 19:01:00,
2013-04-15 15:06:00,67.3,54.7,29.86,SSE,161,2.0,11.0,64,0.00,,,0.00,WUHU216DAVISVP2,2013-04-15 19:06:00,
2013-04-15 15:11:00,67.2,54.4,29.85,South,188,4.0,12.0,63,0.00,,,0.00,WUHU216DAVISVP2,2013-04-15 19:11:00,
2013-04-15 15:16:00,67.1,53.8,29.85,WSW,249,4.0,14.0,62,0.00,,,0.00,WUHU216DAVISVP2,2013-04-15 19:16:00,
2013-04-15 15:19:00,67.0,53.7,29.85,WSW,242,6.0,14.0,62,0.00,,,0.00,WUHU216DAVISVP2,2013-04-15 19:19:00,
2013-04-15 15:21:00,67.0,53.5,29.85,SW,222,4.0,14.0,62,0.00,,,0.00,WUHU216DAVISVP2,2013-04-15 19:21:00,
2013-04-15 15:26:00,67.0,53.7,29.85,WSW,242,6.0,14.0,62,0.00,,,0.00,WUHU216DAVISVP2,2013-04-15 19:26:00,
2013-04-15 15:32:00,67.0,54.4,29.84,WSW,253,6.0,12.0,64,0.00,,,0.00,WUHU216DAVISVP2,2013-04-15 19:32:00,
2013-04-15 15:37:00,66.9,53.9,29.84,SSW,198,4.0,10.0,63,0.00,,,0.00,WUHU216DAVISVP2,2013-04-15 19:37:00,
2013-04-15 15:42:00,66.7,53.9,29.84,West,273,10.0,11.0,63,0.00,,,0.00,WUHU216DAVISVP2,2013-04-15 19:42:00,
2013-04-15 15:47:00,66.7,54.3,29.83,SW,232,5.0,11.0,64,0.00,,,0.00,WUHU216DAVISVP2,2013-04-15 19:47:00,
2013-04-15 15:52:00,66.6,54.5,29.83,WNW,290,6.0,11.0,65,0.00,,,0.00,WUHU216DAVISVP2,2013-04-15 19:52:00,
2013-04-15 15:57:00,66.5,54.5,29.84,WSW,251,2.0,9.0,65,0.00,,,0.00,WUHU216DAVISVP2,2013-04-15 19:57:00,
2013-04-15 15:59:00,66.5,55.0,29.84,West,262,0.0,9.0,66,0.00,,,0.00,WUHU216DAVISVP2,2013-04-15 19:59:00,
2013-04-15 16:00:00,66.5,54.8,29.84,SSW,211,8.0,8.0,66,0.00,,,0.00,WUHU216DAVISVP2,2013-04-15 20:00:00,
2013-04-15 16:01:00,66.5,54.4,29.84,WSW,253,3.0,8.0,65,0.00,,,0.00,WUHU216DAVISVP2,2013-04-15 20:01:00,
2013-04-15 16:02:00,66.6,54.0,29.83,SSW,211,7.0,8.0,64,0.00,,,0.00,WUHU216DAVISVP2,2013-04-15 20:02:00,
2013-04-15 16:03:00,66.6,54.0,29.83,SSW,211,7.0,8.0,64,0.00,,,0.00,WUHU216DAVISVP2,2013-04-15 20:03:00,
2013-04-15 16:04:00,66.5,53.9,29.83,West,265,4.0,8.0,64,0.00,,,0.00,WUHU216DAVISVP2,2013-04-15 20:04:00,
2013-04-15 16:09:00,66.8,54.7,29.83,West,267,4.0,10.0,65,0.00,,,0.00,WUHU216DAVISVP2,2013-04-15 20:09:00,
2013-04-15 16:14:00,67.1,54.5,29.83,SSW,213,1.0,10.0,64,0.00,,,0.00,WUHU216DAVISVP2,2013-04-15 20:14:00,
2013-04-15 16:19:00,67.2,54.6,29.83,South,182,4.0,7.0,64,0.00,,,0.00,WUHU216DAVISVP2,2013-04-15 20:19:00,
2013-04-15 16:24:00,67.4,55.0,29.82,West,263,4.0,11.0,64,0.00,,,0.00,WUHU216DAVISVP2,2013-04-15 20:24:00,
2013-04-15 16:29:00,67.5,55.1,29.82,South,186,4.0,12.0,64,0.00,,,0.00,WUHU216DAVISVP2,2013-04-15 20:29:00,
2013-04-15 16:34:00,67.7,54.4,29.82,WSW,252,1.0,12.0,62,0.00,,,0.00,WUHU216DAVISVP2,2013-04-15 20:34:00,
2013-04-15 16:39:00,67.6,54.3,29.82,West,260,7.0,12.0,62,0.00,,,0.00,WUHU216DAVISVP2,2013-04-15 20:39:00,
2013-04-15 16:45:00,67.6,54.3,29.82,West,275,6.0,12.0,62,0.00,,,0.00,WUHU216DAVISVP2,2013-04-15 20:45:00,
2013-04-15 16:50:00,67.5,54.5,29.82,SSW,204,1.0,9.0,63,0.00,,,0.00,WUHU216DAVISVP2,2013-04-15 20:50:00,
2013-04-15 16:55:00,67.6,54.7,29.81,SW,232,0.0,9.0,63,0.00,,,0.00,WUHU216DAVISVP2,2013-04-15 20:55:00,
2013-04-15 17:00:00,67.7,54.6,29.80,WSW,239,6.0,9.0,63,0.00,,,0.00,WUHU216DAVISVP2,2013-04-15 21:00:00,
2013-04-15 17:05:00,67.7,54.8,29.80,SE,146,2.0,9.0,63,0.00,,,0.00,WUHU216DAVISVP2,2013-04-15 21:05:00,
2013-04-15 17:10:00,67.8,54.9,29.81,SW,219,2.0,8.0,63,0.00,,,0.00,WUHU216DAVISVP2,2013-04-15 21:10:00,
2013-04-15 17:15:00,67.9,55.0,29.81,WSW,239,0.0,8.0,63,0.00,,,0.00,WUHU216DAVISVP2,2013-04-15 21:15:00,
2013-04-15 17:20:00,68.1,54.6,29.81,WSW,248,2.0,12.0,62,0.00,,,0.00,WUHU216DAVISVP2,2013-04-15 21:20:00,
2013-04-15 17:22:00,68.1,55.5,29.81,West,281,6.0,12.0,64,0.00,,,0.00,WUHU216DAVISVP2,2013-04-15 21:22:00,
2013-04-15 17:25:00,68.1,55.5,29.81,West,281,6.0,12.0,64,0.00,,,0.00,WUHU216DAVISVP2,2013-04-15 21:25:00,
2013-04-15 17:30:00,68.1,55.5,29.81,West,281,6.0,12.0,64,0.00,,,0.00,WUHU216DAVISVP2,2013-04-15 21:30:00,
2013-04-15 17:36:00,68.2,54.2,29.82,West,272,4.0,10.0,61,0.00,,,0.00,WUHU216DAVISVP2,2013-04-15 21:36:00,
2013-04-15 17:41:00,68.4,54.4,29.82,SW,214,4.0,11.0,61,0.00,,,0.00,WUHU216DAVISVP2,2013-04-15 21:41:00,
2013-04-15 17:46:00,68.3,54.5,29.81,SSW,200,5.0,11.0,61,0.00,,,0.00,WUHU216DAVISVP2,2013-04-15 21:46:00,
2013-04-15 17:51:00,68.1,55.2,29.82,West,271,4.0,8.0,63,0.00,,,0.00,WUHU216DAVISVP2,2013-04-15 21:51:00,
2013-04-15 17:56:00,67.7,54.4,29.83,WSW,243,6.0,10.0,62,0.00,,,0.00,WUHU216DAVISVP2,2013-04-15 21:56:00,
2013-04-15 18:01:00,67.5,54.6,29.83,WSW,253,2.0,12.0,63,0.00,,,0.00,WUHU216DAVISVP2,2013-04-15 22:01:00,
2013-04-15 18:06:00,67.2,54.8,29.83,SW,229,5.0,12.0,64,0.00,,,0.00,WUHU216DAVISVP2,2013-04-15 22:06:00,
2013-04-15 18:11:00,66.9,54.9,29.83,South,182,2.0,10.0,65,0.00,,,0.00,WUHU216DAVISVP2,2013-04-15 22:11:00,
2013-04-15 18:16:00,66.7,54.6,29.83,WSW,237,6.0,8.0,65,0.00,,,0.00,WUHU216DAVISVP2,2013-04-15 22:16:00,
2013-04-15 18:21:00,66.5,54.4,29.83,WSW,249,4.0,8.0,65,0.00,,,0.00,WUHU216DAVISVP2,2013-04-15 22:21:00,
2013-04-15 18:26:00,66.5,54.5,29.83,West,263,9.0,9.0,65,0.00,,,0.00,WUHU216DAVISVP2,2013-04-15 22:26:00,
2013-04-15 18:31:00,66.3,54.2,29.84,WSW,244,3.0,9.0,65,0.00,,,0.00,WUHU216DAVISVP2,2013-04-15 22:31:00,
2013-04-15 18:37:00,66.2,54.3,29.84,SW,221,1.0,8.0,65,0.00,,,0.00,WUHU216DAVISVP2,2013-04-15 22:37:00,
2013-04-15 18:42:00,66.1,54.2,29.84,SSW,202,2.0,8.0,65,0.00,,,0.00,WUHU216DAVISVP2,2013-04-15 22:42:00,
2013-04-15 18:47:00,66.1,54.6,29.84,SW,218,1.0,8.0,66,0.00,,,0.00,WUHU216DAVISVP2,2013-04-15 22:47:00,
2013-04-15 18:48:00,66.1,54.6,29.84,SW,229,2.0,11.0,66,0.00,,,0.00,WUHU216DAVISVP2,2013-04-15 22:48:00,
2013-04-15 18:52:00,66.0,54.3,29.84,South,184,3.0,11.0,66,0.00,,,0.00,WUHU216DAVISVP2,2013-04-15 22:52:00,
2013-04-15 18:55:00,66.0,54.3,29.84,West,265,5.0,11.0,66,0.00,,,0.00,WUHU216DAVISVP2,2013-04-15 22:55:00,
2013-04-15 18:57:00,66.0,54.5,29.84,SSW,199,1.0,11.0,66,0.00,,,0.00,WUHU216DAVISVP2,2013-04-15 22:57:00,
2013-04-15 19:02:00,65.8,54.3,29.84,WNW,287,5.0,8.0,66,0.00,,,0.00,WUHU216DAVISVP2,2013-04-15 23:02:00,
2013-04-15 19:07:00,65.8,54.7,29.84,SW,217,1.0,8.0,67,0.00,,,0.00,WUHU216DAVISVP2,2013-04-15 23:07:00,
2013-04-15 19:12:00,65.8,54.7,29.84,SW,217,0.0,8.0,67,0.00,,,0.00,WUHU216DAVISVP2,2013-04-15 23:12:00,
2013-04-15 19:17:00,65.7,54.6,29.84,SW,225,0.0,6.0,67,0.00,,,0.00,WUHU216DAVISVP2,2013-04-15 23:17:00,
2013-04-15 19:22:00,65.6,54.5,29.84,SW,236,1.0,6.0,67,0.00,,,0.00,WUHU216DAVISVP2,2013-04-15 23:22:00,
2013-04-15 19:27:00,65.5,54.8,29.84,West,280,2.0,6.0,68,0.00,,,0.00,WUHU216DAVISVP2,2013-04-15 23:27:00,
2013-04-15 19:32:00,65.3,54.6,29.85,SW,223,1.0,5.0,68,0.00,,,0.00,WUHU216DAVISVP2,2013-04-15 23:32:00,
2013-04-15 19:37:00,65.2,54.5,29.85,WSW,240,0.0,5.0,68,0.00,,,0.00,WUHU216DAVISVP2,2013-04-15 23:37:00,
2013-04-15 19:42:00,65.1,54.8,29.85,SW,232,0.0,5.0,69,0.00,,,0.00,WUHU216DAVISVP2,2013-04-15 23:42:00,
2013-04-15 19:48:00,65.0,54.7,29.85,SW,229,1.0,5.0,69,0.00,,,0.00,WUHU216DAVISVP2,2013-04-15 23:48:00,
2013-04-15 19:53:00,64.9,54.6,29.85,SSW,195,2.0,5.0,69,0.00,,,0.00,WUHU216DAVISVP2,2013-04-15 23:53:00,
2013-04-15 19:58:00,64.7,54.8,29.85,SSW,195,0.0,2.0,70,0.00,,,0.00,WUHU216DAVISVP2,2013-04-15 23:58:00,
2013-04-15 20:03:00,64.6,54.7,29.85,SSW,195,0.0,2.0,70,0.00,,,0.00,WUHU216DAVISVP2,2013-04-16 00:03:00,
2013-04-15 20:08:00,64.5,54.7,29.85,SSW,195,0.0,2.0,70,0.00,,,0.00,WUHU216DAVISVP2,2013-04-16 00:08:00,
2013-04-15 20:13:00,64.3,54.8,29.84,SSW,195,0.0,1.0,71,0.00,,,0.00,WUHU216DAVISVP2,2013-04-16 00:13:00,
2013-04-15 20:18:00,64.1,54.6,29.84,SSW,195,0.0,1.0,71,0.00,,,0.00,WUHU216DAVISVP2,2013-04-16 00:18:00,
2013-04-15 20:19:00,64.1,54.6,29.84,SSW,195,0.0,1.0,71,0.00,,,0.00,WUHU216DAVISVP2,2013-04-16 00:19:00,
2013-04-15 20:23:00,64.1,54.6,29.84,SSW,195,0.0,1.0,71,0.00,,,0.00,WUHU216DAVISVP2,2013-04-16 00:23:00,
2013-04-15 20:26:00,63.7,54.6,29.84,SSW,195,0.0,1.0,72,0.00,,,0.00,WUHU216DAVISVP2,2013-04-16 00:26:00,
2013-04-15 20:28:00,63.6,54.5,29.84,SSW,195,0.0,1.0,72,0.00,,,0.00,WUHU216DAVISVP2,2013-04-16 00:28:00,
2013-04-15 20:33:00,63.4,54.7,29.85,SSW,195,0.0,2.0,73,0.00,,,0.00,WUHU216DAVISVP2,2013-04-16 00:33:00,
2013-04-15 20:39:00,63.5,54.4,29.85,SSW,195,0.0,2.0,72,0.00,,,0.00,WUHU216DAVISVP2,2013-04-16 00:39:00,
2013-04-15 20:44:00,63.2,54.9,29.86,SSW,195,0.0,1.0,74,0.00,,,0.00,WUHU216DAVISVP2,2013-04-16 00:44:00,
2013-04-15 20:49:00,63.1,54.8,29.86,SSW,195,0.0,0.0,74,0.00,,,0.00,WUHU216DAVISVP2,2013-04-16 00:49:00,
2013-04-15 20:54:00,62.9,54.6,29.85,SSW,195,0.0,1.0,74,0.00,,,0.00,WUHU216DAVISVP2,2013-04-16 00:54:00,
2013-04-15 20:59:00,62.7,54.8,29.86,SSW,195,1.0,1.0,75,0.00,,,0.00,WUHU216DAVISVP2,2013-04-16 00:59:00,
2013-04-15 21:04:00,62.6,54.7,29.86,SSW,195,0.0,2.0,75,0.00,,,0.00,WUHU216DAVISVP2,2013-04-16 01:04:00,
2013-04-15 21:09:00,62.7,54.8,29.86,SW,232,0.0,5.0,75,0.00,,,0.00,WUHU216DAVISVP2,2013-04-16 01:09:00,
2013-04-15 21:14:00,62.8,54.9,29.86,SW,236,1.0,5.0,75,0.00,,,0.00,WUHU216DAVISVP2,2013-04-16 01:14:00,
2013-04-15 21:19:00,62.9,54.6,29.87,West,259,2.0,3.0,74,0.00,,,0.00,WUHU216DAVISVP2,2013-04-16 01:19:00,
2013-04-15 21:24:00,62.9,54.6,29.86,SW,216,0.0,4.0,74,0.00,,,0.00,WUHU216DAVISVP2,2013-04-16 01:24:00,
2013-04-15 21:29:00,62.8,54.9,29.87,SW,216,0.0,4.0,75,0.00,,,0.00,WUHU216DAVISVP2,2013-04-16 01:29:00,
2013-04-15 21:34:00,62.7,54.8,29.87,SW,216,0.0,1.0,75,0.00,,,0.00,WUHU216DAVISVP2,2013-04-16 01:34:00,
2013-04-15 21:40:00,62.4,54.5,29.87,SW,215,0.0,1.0,75,0.00,,,0.00,WUHU216DAVISVP2,2013-04-16 01:40:00,
2013-04-15 21:45:00,62.2,54.6,29.87,SW,215,0.0,2.0,76,0.00,,,0.00,WUHU216DAVISVP2,2013-04-16 01:45:00,
2013-04-15 21:50:00,62.1,54.5,29.87,SW,215,1.0,2.0,76,0.00,,,0.00,WUHU216DAVISVP2,2013-04-16 01:50:00,
2013-04-15 21:55:00,62.0,54.4,29.87,SW,216,1.0,4.0,76,0.00,,,0.00,WUHU216DAVISVP2,2013-04-16 01:55:00,
2013-04-15 22:00:00,62.0,54.4,29.88,WSW,250,1.0,5.0,76,0.00,,,0.00,WUHU216DAVISVP2,2013-04-16 02:00:00,
2013-04-15 22:05:00,62.1,54.2,29.88,SW,215,1.0,6.0,75,0.00,,,0.00,WUHU216DAVISVP2,2013-04-16 02:05:00,
2013-04-15 22:11:00,62.1,54.2,29.88,South,186,1.0,6.0,75,0.00,,,0.00,WUHU216DAVISVP2,2013-04-16 02:11:00,
2013-04-15 22:16:00,62.1,54.2,29.88,SW,236,2.0,9.0,75,0.00,,,0.00,WUHU216DAVISVP2,2013-04-16 02:16:00,
2013-04-15 22:21:00,62.1,54.2,29.88,SW,236,0.0,9.0,75,0.00,,,0.00,WUHU216DAVISVP2,2013-04-16 02:21:00,
2013-04-15 22:26:00,62.0,54.1,29.88,South,169,0.0,8.0,75,0.00,,,0.00,WUHU216DAVISVP2,2013-04-16 02:26:00,
2013-04-15 22:31:00,61.9,54.0,29.87,SSE,168,0.0,6.0,75,0.00,,,0.00,WUHU216DAVISVP2,2013-04-16 02:31:00,
2013-04-15 22:36:00,61.8,53.9,29.87,South,172,1.0,6.0,75,0.00,,,0.00,WUHU216DAVISVP2,2013-04-16 02:36:00,
2013-04-15 22:42:00,61.7,54.2,29.87,South,182,0.0,5.0,76,0.00,,,0.00,WUHU216DAVISVP2,2013-04-16 02:42:00,
2013-04-15 22:47:00,61.6,54.1,29.87,South,182,0.0,5.0,76,0.00,,,0.00,WUHU216DAVISVP2,2013-04-16 02:47:00,
2013-04-15 22:52:00,61.6,54.1,29.86,SE,138,0.0,4.0,76,0.00,,,0.00,WUHU216DAVISVP2,2013-04-16 02:52:00,
2013-04-15 22:57:00,61.4,53.9,29.86,SSE,163,0.0,5.0,76,0.00,,,0.00,WUHU216DAVISVP2,2013-04-16 02:57:00,
2013-04-15 23:02:00,61.3,53.8,29.86,South,180,0.0,5.0,76,0.00,,,0.00,WUHU216DAVISVP2,2013-04-16 03:02:00,
2013-04-15 23:07:00,61.2,53.7,29.86,SW,223,1.0,9.0,76,0.00,,,0.00,WUHU216DAVISVP2,2013-04-16 03:07:00,
2013-04-15 23:12:00,60.9,53.4,29.85,SSW,200,1.0,9.0,76,0.00,,,0.00,WUHU216DAVISVP2,2013-04-16 03:12:00,
2013-04-15 23:17:00,60.8,53.6,29.85,South,184,0.0,9.0,77,0.00,,,0.00,WUHU216DAVISVP2,2013-04-16 03:17:00,
2013-04-15 23:22:00,60.7,53.5,29.85,WNW,300,1.0,5.0,77,0.00,,,0.00,WUHU216DAVISVP2,2013-04-16 03:22:00,
2013-04-15 23:27:00,60.6,53.4,29.85,South,169,5.0,6.0,77,0.00,,,0.00,WUHU216DAVISVP2,2013-04-16 03:27:00,
2013-04-15 23:33:00,60.6,53.4,29.85,SSE,166,1.0,6.0,77,0.00,,,0.00,WUHU216DAVISVP2,2013-04-16 03:33:00,
2013-04-15 23:38:00,60.6,53.4,29.86,SSW,206,4.0,6.0,77,0.00,,,0.00,WUHU216DAVISVP2,2013-04-16 03:38:00,
2013-04-15 23:43:00,60.7,53.5,29.85,South,176,1.0,9.0,77,0.00,,,0.00,WUHU216DAVISVP2,2013-04-16 03:43:00,
2013-04-15 23:48:00,60.7,53.5,29.85,SSW,208,4.0,9.0,77,0.00,,,0.00,WUHU216DAVISVP2,2013-04-16 03:48:00,
2013-04-15 23:53:00,60.8,53.6,29.85,SSE,154,1.0,9.0,77,0.00,,,0.00,WUHU216DAVISVP2,2013-04-16 03:53:00,
2013-04-15 23:58:00,60.8,53.6,29.84,SW,221,2.0,11.0,77,0.00,,,0.00,WUHU216DAVISVP2,2013-04-16 03:58:00,